Probability
0 0 3 3 3 0 0 0 0 0 0 0 0 0 0 0 0 0 0 0 0 0 0 0 0 0 0 0 0 0 0 0 0 0 0 0 0 0 0 0 0 0 0
0 0 3 3 6 0 0 0 0 0 0 0 0 0 0 0 0 0 0 0 0 0 0 0 0 0 0 0 0 0 0 0 0 0 0 0 0 0 0 0 0 0 0
0 3 3 6 6 0 0 0 0 0 0 0 0 0 0 0 0 0 0 0 0 0 0 0 0 0 0 0 0 0 0 0 0 0 0 0 0 0 0 0 0 0 0
0 3 3 3 3 0 0 0 0 0 0 0 0 0 0 0 0 0 0 0 0 0 0 0 0 0 0 0 0 0 0 0 0 0 0 0 0 0 0 0 0 0 0
0 0 3 3 3 0 0 0 0 0 0 0 0 0 0 0 0 0 0 0 0 0 0 0 0 0 0 0 0 0 0 0 0 0 0 0 0 0 0 0 0 0 0
0 0 3 3 3 0 0 0 0 0 0 0 0 0 0 0 0 0 0 0 0 0 0 0 0 0 0 0 0 0 0 0 0 0 0 0 0 0 0 0 0 0 0
0 0 3 3 3 0 0 0 0 0 0 0 0 0 0 0 0 0 0 0 0 0 0 0 0 0 0 0 0 0 0 0 0 0 0 0 0 0 0 0 0 0 0
0 0 3 3 3 0 0 0 0 0 0 0 0 0 0 0 0 0 0 0 0 0 0 0 0 0 0 0 0 0 0 0 0 0 0 0 0 0 0 0 0 0 0
0 3 3 3 3 3 0 0 0 0 0 0 0 0 0 0 0 0 0 0 0 0 0 0 0 0 0 0 0 0 0 0 0 0 0 0 0 0 0 0 0 0 0
0 3 3 0 0 3 0 0 0 0 0 0 0 0 0 0 0 0 0 0 0 0 0 0 0 0 0 0 0 0 0 0 0 0 0 0 0 0 0 0 0 0 0
0 0 0 0 0 0 0 0 0 0 0 0 0 0 0 0 0 0 0 0 0 0 0 0 0 0 0 0 0 0 0 0 0 0 0 0 0 0 0 0 0 0 0
0 0 0 0 0 0 0 0 0 0 0 0 0 0 0 0 0 0 0 0 0 0 0 0 0 0 0 0 0 0 0 0 0 0 0 0 0 0 0 0 0 0 0
0 0 0 0 0 0 0 0 0 0 0 0 0 0 0 0 0 0 0 0 0 0 0 0 0 0 0 0 0 0 0 0 0 0 0 0 0 0 0 0 0 0 0
0 0 0 0 0 0 0 0 0 0 0 0 0 0 0 0 0 0 0 0 0 0 0 0 0 0 0 0 0 0 0 0 0 0 0 0 0 0 0 0 0 0 0
0 0 0 0 0 0 0 0 0 0 0 0 0 0 0 0 0 0 0 0 0 0 0 0 0 0 0 0 0 0 0 0 0 0 0 0 0 0 0 0 0 0 0
0 0 0 0 0 0 0 0 0 0 0 0 0 0 0 0 0 0 0 0 0 0 0 0 0 0 0 0 0 0 0 0 0 0 0 0 0 0 0 0 0 0 0
0 0 0 0 0 0 0 3 3 3 0 0 0 0 0 0 0 0 0 0 0 0 0 0 0 0 0 0 0 0 0 0 0 0 0 0 0 0 0 0 0 0 0
0 0 0 0 0 0 0 3 3 3 0 0 0 0 0 0 0 0 0 0 0 0 0 0 0 0 0 0 0 0 0 0 0 0 0 0 0 0 0 0 0 0 0
0 0 0 0 0 0 0 3 3 3 0 0 0 0 0 0 0 0 0 0 0 0 0 0 0 0 0 0 0 0 0 0 0 0 0 0 0 0 0 0 0 0 0
0 0 0 0 0 0 0 3 0 0 0 0 0 0 0 0 0 0 0 0 0 0 0 0 0 0 0 0 0 0 0 0 0 0 0 0 0 0 0 0 0 0 0
0 0 0 0 0 0 3 0 0 0 0 0 0 0 0 0 0 0 0 0 0 0 0 0 0 0 0 0 0 0 0 0 0 0 0 0 0 0 0 0 0 0 0
0 0 0 0 0 0 3 0 0 0 0 0 0 0 0 0 0 0 0 0 0 0 0 0 0 0 0 0 0 0 0 0 0 0 0 0 0 0 0 0 0 0 0
0 0 0 0 0 0 0 0 0 0 0 0 0 0 0 0 0 0 0 0 0 0 0 0 0 0 0 0 0 0 0 0 0 0 0 0 0 0 0 0 0 0 0
0 0 0 0 0 0 0 0 0 0 0 0 0 0 0 0 0 0 0 0 0 0 0 0 0 0 0 0 0 0 0 0 0 0 0 0 0 0 0 0 0 0 0
0 0 0 0 0 0 0 0 0 0 0 0 0 0 0 0 0 0 0 0 0 0 0 0 0 0 0 0 0 0 0 0 0 0 0 0 0 0 0 0 0 0 0
0 0 0 0 0 0 0 0 0 0 0 0 0 0 0 0 0 0 0 0 0 0 0 0 0 0 0 0 0 0 0 0 0 0 0 0 0 0 0 0 0 0 0
Height
5857 5857 5858 5858 5859 5860 5860 5861 5862 5862 5863 5864 5865 5866 5866 5867 5867 5868 5868 5869 5869 5870 5870 5870 5869 5869 5869 5868 5868 5867 5867 5866 5866 5865 5864 5863 5862 5861 5860 5859 5858 5857 5856
5854 5854 5855 5855 5856 5856 5857 5858 5858 5859 5860 5861 5862 5863 5863 5864 5864 5865 5866 5866 5866 5867 5867 5867 5867 5867 5866 5866 5865 5865 5865 5864 5863 5862 5861 5861 5860 5858 5857 5856 5855 5854 5853
5851 5851 5852 5852 5853 5853 5853 5854 5855 5856 5857 5858 5859 5860 5860 5861 5861 5862 5863 5863 5864 5864 5864 5864 5864 5864 5864 5864 5863 5863 5862 5862 5861 5860 5859 5858 5857 5856 5855 5854 5853 5852 5851
5848 5848 5849 5849 5850 5850 5850 5851 5852 5853 5854 5855 5856 5857 5857 5858 5858 5859 5860 5860 5861 5861 5861 5861 5861 5861 5861 5861 5861 5861 5860 5859 5858 5858 5857 5856 5855 5854 5853 5852 5851 5850 5849
5845 5845 5845 5846 5846 5847 5847 5848 5849 5850 5851 5852 5853 5854 5854 5855 5855 5856 5857 5857 5858 5858 5858 5858 5858 5858 5858 5858 5858 5858 5857 5857 5856 5855 5854 5853 5852 5852 5851 5850 5849 5848 5846
5841 5841 5842 5842 5843 5844 5844 5845 5846 5847 5848 5848 5849 5850 5851 5852 5852 5853 5854 5854 5854 5855 5855 5855 5855 5855 5855 5855 5855 5855 5854 5854 5853 5852 5852 5851 5850 5849 5848 5847 5846 5845 5844
5837 5838 5838 5839 5839 5840 5841 5842 5843 5843 5844 5845 5846 5847 5848 5848 5849 5850 5850 5851 5851 5851 5851 5851 5852 5852 5852 5852 5851 5851 5851 5850 5850 5849 5849 5848 5847 5846 5845 5844 5844 5843 5842
5834 5834 5835 5835 5836 5837 5838 5838 5839 5840 5841 5842 5842 5843 5844 5845 5845 5846 5847 5847 5847 5848 5848 5848 5848 5848 5848 5848 5848 5848 5847 5847 5847 5846 5845 5845 5844 5843 5842 5841 5841 5839 5839
5830 5830 5831 5831 5832 5833 5834 5835 5836 5837 5837 5838 5839 5839 5840 5841 5841 5842 5843 5843 5843 5844 5844 5844 5844 5844 5844 5844 5844 5844 5844 5843 5843 5843 5842 5841 5841 5840 5839 5838 5837 5837 5836
5826 5826 5827 5827 5828 5829 5830 5831 5832 5833 5834 5834 5835 5836 5836 5837 5838 5838 5839 5839 5840 5840 5840 5841 5841 5840 5840 5840 5840 5840 5840 5840 5839 5839 5838 5838 5837 5836 5835 5835 5834 5833 5832
5822 5822 5822 5823 5824 5825 5826 5827 5828 5829 5830 5831 5831 5832 5832 5833 5833 5834 5835 5835 5836 5836 5836 5837 5836 5836 5836 5837 5836 5836 5836 5836 5836 5835 5835 5834 5834 5833 5832 5832 5831 5830 5829
5818 5818 5819 5819 5820 5821 5822 5823 5824 5825 5826 5827 5827 5827 5828 5829 5829 5830 5830 5831 5831 5832 5832 5832 5832 5832 5833 5833 5832 5832 5832 5832 5832 5831 5831 5831 5830 5830 5829 5828 5828 5827 5826
5815 5815 5815 5816 5816 5817 5818 5819 5820 5821 5822 5822 5823 5823 5824 5824 5825 5825 5826 5826 5827 5827 5828 5828 5829 5829 5829 5829 5828 5828 5828 5828 5828 5828 5827 5827 5827 5826 5826 5825 5824 5823 5822
5811 5811 5812 5812 5813 5813 5814 5815 5816 5816 5817 5818 5818 5819 5820 5820 5821 5821 5822 5822 5823 5823 5824 5824 5824 5825 5825 5824 5825 5824 5824 5824 5824 5824 5823 5823 5823 5823 5822 5821 5821 5820 5819
5807 5807 5808 5809 5809 5809 5810 5811 5811 5812 5813 5814 5814 5815 5815 5816 5816 5817 5817 5818 5819 5819 5820 5820 5820 5820 5821 5821 5821 5820 5820 5820 5820 5820 5820 5820 5819 5819 5818 5818 5817 5816 5815
5803 5803 5804 5805 5805 5806 5806 5807 5807 5808 5809 5809 5810 5811 5811 5812 5812 5813 5813 5814 5814 5815 5815 5815 5816 5816 5816 5816 5816 5816 5816 5816 5816 5816 5816 5816 5816 5815 5814 5814 5813 5812 5812
5799 5800 5800 5800 5801 5802 5802 5803 5804 5804 5805 5806 5806 5807 5807 5808 5808 5809 5809 5809 5810 5810 5810 5811 5811 5812 5812 5812 5812 5812 5812 5813 5813 5812 5812 5812 5812 5811 5810 5809 5809 5808 5807
5795 5796 5796 5796 5797 5798 5798 5799 5800 5800 5801 5802 5802 5803 5803 5804 5804 5805 5805 5805 5805 5806 5806 5806 5807 5807 5808 5808 5808 5808 5808 5808 5808 5808 5808 5808 5807 5806 5806 5805 5805 5804 5803
5791 5791 5792 5792 5793 5794 5794 5795 5796 5796 5797 5798 5798 5799 5799 5800 5800 5801 5801 5801 5801 5801 5802 5802 5802 5803 5803 5803 5803 5803 5804 5804 5804 5804 5804 5803 5802 5802 5801 5801 5800 5799 5798
5786 5787 5788 5788 5789 5790 5791 5791 5792 5793 5793 5794 5795 5795 5795 5796 5796 5797 5797 5797 5797 5797 5797 5797 5798 5798 5798 5798 5798 5798 5798 5799 5799 5799 5799 5798 5798 5797 5796 5795 5795 5794 5793
5782 5783 5784 5785 5785 5786 5787 5787 5788 5789 5790 5790 5791 5791 5791 5792 5792 5792 5792 5793 5793 5793 5793 5793 5793 5793 5793 5793 5793 5793 5793 5793 5794 5794 5793 5793 5792 5791 5791 5790 5790 5789 5787
5777 5778 5779 5780 5781 5782 5783 5784 5784 5785 5786 5786 5786 5787 5787 5787 5788 5788 5788 5788 5788 5788 5788 5788 5788 5788 5788 5788 5788 5788 5788 5788 5788 5788 5788 5787 5787 5786 5786 5785 5784 5783 5782
5773 5774 5775 5776 5777 5778 5778 5779 5780 5781 5781 5782 5782 5782 5783 5783 5784 5784 5784 5784 5784 5784 5784 5784 5783 5783 5783 5783 5783 5783 5783 5783 5783 5783 5782 5782 5782 5781 5781 5780 5779 5777 5776
5767 5769 5770 5771 5772 5773 5774 5775 5775 5776 5777 5777 5778 5778 5778 5779 5779 5779 5779 5779 5779 5779 5779 5779 5779 5778 5778 5778 5777 5777 5778 5778 5777 5777 5777 5777 5777 5776 5775 5774 5773 5771 5770
5762 5763 5764 5766 5767 5768 5769 5770 5771 5771 5772 5772 5773 5773 5774 5774 5774 5774 5775 5775 5775 5774 5774 5774 5774 5773 5773 5772 5772 5772 5772 5772 5772 5772 5772 5772 5771 5770 5769 5768 5766 5765 5763
5756 5757 5759 5760 5762 5763 5764 5765 5766 5766 5767 5767 5768 5768 5769 5769 5769 5769 5769 5769 5769 5769 5769 5769 5768 5768 5768 5767 5767 5767 5767 5767 5767 5767 5766 5766 5765 5764 5763 5762 5760 5758 5756
Wind_Speed
12 13 13 13 13 13 14 15 15 14 14 14 14 14 14 14 13 13 13 13 12 12 12 11 11 11 11 11 11 10 10 10 10 10 11 11 11 11 11 10 11 11 11
12 12 13 14 14 15 15 15 16 15 15 15 15 14 14 14 14 14 13 13 13 13 12 12 11 11 11 11 10 9 9 10 11 11 11 11 11 11 11 11 11 11 10
13 12 13 13 14 15 16 16 15 15 15 15 15 14 14 13 13 13 14 14 13 13 13 13 12 11 11 11 10 10 10 10 11 11 11 10 11 11 11 11 11 11 10
13 13 13 13 13 14 15 15 15 15 15 14 14 13 13 13 13 13 13 13 13 13 13 13 12 12 11 12 11 11 11 10 10 10 10 10 11 11 11 11 11 11 11
14 14 14 14 14 14 15 15 14 14 14 14 13 13 13 13 13 13 13 12 13 13 13 13 13 12 12 13 12 12 12 11 11 11 11 11 12 11 12 11 11 11 12
15 15 14 14 14 14 14 13 14 14 14 14 14 14 13 14 14 14 14 13 13 13 13 13 13 13 13 14 13 12 12 12 11 11 12 12 12 12 12 12 12 12 12
15 15 15 14 13 13 13 14 14 14 14 14 14 14 14 14 14 15 14 15 15 14 15 14 14 14 14 14 14 13 13 13 12 12 12 13 13 12 12 12 12 12 12
15 15 15 15 15 15 14 14 13 13 14 15 14 15 15 15 15 15 15 15 15 15 15 15 14 14 14 14 14 14 13 13 13 13 13 13 13 13 12 12 13 12 12
15 15 15 15 15 15 15 15 14 14 14 15 15 14 15 15 15 16 16 16 16 15 14 14 15 15 15 15 14 14 14 14 13 13 14 14 14 14 12 12 12 12 12
14 15 15 15 15 15 15 15 15 15 14 14 15 15 15 15 15 15 16 16 16 16 15 15 15 15 16 15 15 15 15 15 14 14 14 13 13 13 13 12 12 12 12
14 15 15 14 14 14 15 15 16 16 16 16 16 16 16 15 16 16 16 16 16 16 16 16 15 15 15 16 16 15 15 15 15 14 14 14 13 13 13 12 12 13 13
13 14 14 14 14 14 15 16 16 17 17 17 17 16 16 16 16 16 17 17 17 17 16 15 14 15 15 15 15 15 15 14 13 13 13 13 12 12 12 12 13 13 13
13 14 14 14 14 15 15 17 17 17 16 16 16 16 17 16 16 16 16 16 17 16 16 14 14 14 14 14 14 14 13 13 13 13 13 13 13 13 13 13 14 14 14
14 14 14 14 14 15 15 16 17 17 17 17 17 17 17 17 16 16 16 16 16 16 15 15 14 14 15 15 14 14 13 12 12 12 13 13 13 13 13 13 13 14 14
14 14 14 14 15 15 15 15 16 17 17 17 17 16 16 17 16 16 16 16 16 16 15 15 15 16 16 15 14 14 13 13 13 13 13 13 13 13 13 13 14 14 14
14 15 15 15 15 15 15 16 16 16 16 16 16 16 16 16 16 16 15 15 16 16 15 15 15 15 15 15 15 15 14 13 13 13 13 13 14 14 14 15 15 16 16
15 15 15 15 15 15 15 15 15 15 15 15 16 16 16 15 15 15 15 15 15 15 15 16 16 15 15 15 15 15 14 14 14 14 14 14 14 15 15 16 16 16 16
16 16 15 15 15 15 15 15 15 15 15 15 15 15 15 15 15 15 15 15 15 15 16 16 16 16 16 17 16 16 15 15 14 14 15 15 16 17 17 17 17 17 17
15 15 14 15 15 15 15 15 15 15 14 14 14 15 15 15 15 15 15 15 15 16 16 16 16 17 17 17 17 16 16 16 16 16 17 17 17 18 18 18 18 19 19
15 15 14 14 14 14 14 14 15 14 14 14 14 14 15 15 15 15 15 16 16 16 16 16 17 17 17 17 17 17 18 18 18 18 19 18 19 19 18 19 19 20 21
15 15 14 15 14 14 14 14 14 14 14 14 15 15 15 14 14 15 15 16 16 16 16 17 17 18 18 18 18 18 19 18 18 19 19 19 19 19 19 19 19 20 21
16 16 16 16 16 15 15 14 14 15 15 15 15 15 14 14 14 14 14 15 16 15 16 16 17 17 18 19 19 18 18 19 19 19 19 19 19 19 19 19 20 21 21
18 17 17 17 17 16 16 15 15 15 16 16 16 15 14 14 14 15 15 15 16 16 16 17 17 18 18 19 19 19 19 19 19 20 20 19 19 18 19 20 21 21 22
19 18 17 17 17 17 17 15 16 16 16 16 16 16 15 15 16 16 16 16 16 16 17 17 17 18 19 19 19 19 19 19 19 19 19 19 19 19 20 21 21 22 23
19 20 19 19 18 17 17 17 16 16 17 17 17 17 17 17 17 17 17 17 17 17 18 18 18 18 18 18 18 18 18 18 19 19 19 19 19 20 21 22 23 23 24
19 20 20 19 18 18 18 18 18 18 17 17 17 18 18 18 18 18 18 18 18 18 18 18 18 18 18 18 18 18 18 19 19 19 19 20 21 22 23 23 24 25 26
Wind_Direction
255 257 256 254 252 250 249 249 251 252 252 253 254 254 253 250 252 254 255 260 261 264 269 271 273 275 279 284 284 285 286 287 289 291 293 298 299 298 302 304 306 305 306
254 255 254 253 251 249 250 251 250 250 252 252 253 254 252 250 252 254 255 257 259 262 266 269 272 275 278 281 282 284 288 290 292 291 292 295 298 301 302 304 305 305 304
255 253 251 249 248 250 252 253 253 250 249 251 253 255 253 252 253 255 256 256 256 259 261 266 269 271 275 278 280 283 287 289 291 291 292 293 297 297 298 300 301 302 303
256 256 256 253 252 252 252 254 252 250 251 252 252 253 251 252 253 255 258 258 257 258 261 265 267 269 272 275 278 280 282 286 290 292 290 292 296 294 294 296 297 298 300
258 259 259 258 257 257 253 251 250 251 252 252 251 251 251 252 253 255 258 260 261 260 265 268 267 270 274 276 274 276 280 284 288 289 289 292 295 291 292 292 294 296 297
262 262 260 258 257 255 252 250 249 251 250 249 249 250 252 254 253 254 256 258 259 260 263 269 271 272 273 275 273 276 279 283 284 286 287 291 294 290 293 292 291 292 294
261 261 259 256 252 250 251 252 251 249 250 250 251 251 254 256 255 255 256 258 260 262 265 269 271 273 273 274 274 276 277 282 282 283 285 288 291 288 290 290 289 290 293
263 263 260 255 252 251 251 254 253 251 250 252 254 255 256 257 256 255 255 258 261 263 268 271 271 272 275 275 273 275 273 277 279 281 283 284 289 289 290 290 289 288 289
262 262 259 255 252 253 252 253 252 253 255 255 254 257 257 255 254 256 256 258 261 262 266 268 271 272 273 274 274 273 272 273 275 277 279 280 283 286 286 286 285 287 287
261 261 259 255 250 251 252 251 252 253 257 258 257 256 258 256 256 257 255 256 259 261 262 266 271 272 272 272 272 271 274 274 274 277 280 282 283 284 284 284 285 288 288
262 261 258 257 256 250 249 251 251 253 255 256 258 258 256 257 258 258 258 258 259 261 262 264 269 271 273 272 272 273 275 274 275 275 278 281 281 282 285 286 289 290 291
264 261 257 259 259 255 252 252 253 253 254 257 259 259 257 259 261 260 260 259 259 261 261 265 268 270 272 273 274 275 275 271 274 277 276 277 280 283 286 287 291 293 293
264 261 258 259 259 255 254 253 254 254 253 255 259 260 258 260 261 261 262 260 256 257 258 261 266 268 271 274 276 275 273 271 270 272 276 276 279 280 283 285 288 291 294
263 260 258 258 259 256 256 255 255 255 255 255 258 259 258 261 262 261 262 260 256 255 258 261 263 264 268 271 272 270 268 271 274 276 277 275 278 284 286 287 288 291 293
261 260 258 260 260 257 256 254 255 255 256 256 258 259 261 263 262 262 264 262 259 258 261 262 263 264 266 267 267 267 265 270 274 278 279 277 278 284 288 289 290 293 294
262 259 257 259 260 259 258 254 256 256 254 256 258 260 262 263 261 264 264 263 263 258 258 260 264 266 263 265 265 265 267 270 274 277 277 277 279 280 285 291 292 292 292
261 260 259 260 260 260 258 254 254 255 255 257 259 260 263 264 261 263 267 267 266 260 258 259 260 263 266 268 269 267 266 270 273 276 278 281 281 283 284 287 290 290 292
261 261 261 258 256 258 256 253 251 253 256 258 258 260 261 264 263 264 267 267 266 264 260 257 258 261 265 266 267 266 267 270 272 274 277 282 284 284 285 285 287 288 291
265 263 259 257 254 255 254 254 253 255 257 259 259 261 261 261 262 263 265 268 267 265 260 257 259 263 265 264 264 266 269 271 273 275 278 282 284 286 286 283 284 288 291
262 263 259 255 253 254 255 258 257 255 256 259 260 263 264 263 263 264 266 267 267 267 261 260 262 265 265 265 264 268 270 270 270 274 278 281 283 286 286 283 285 288 291
260 260 259 255 253 254 257 258 257 256 257 260 261 264 265 267 266 268 268 267 269 267 264 264 265 266 266 266 266 268 267 268 269 273 278 281 283 284 285 285 287 290 292
261 261 260 257 255 256 258 259 259 259 260 262 263 265 267 267 268 269 270 269 271 268 264 267 268 268 267 267 268 269 268 269 270 274 277 280 282 282 283 285 287 290 292
258 260 260 256 254 256 259 258 257 259 261 262 263 265 265 267 268 270 271 271 271 269 269 269 268 269 270 271 270 269 269 271 273 276 278 279 280 281 284 287 288 290 292
257 258 258 255 253 256 258 258 258 259 262 262 263 263 265 266 268 269 270 272 271 273 272 269 270 272 273 271 270 268 269 271 273 277 279 279 282 283 284 287 289 291 292
258 260 258 254 253 256 258 259 262 260 261 262 263 263 265 266 268 270 271 273 272 275 272 270 270 271 272 270 268 267 267 271 276 278 279 282 284 286 287 289 290 292 293
256 256 256 255 253 255 257 259 262 263 261 261 263 265 266 267 268 269 270 271 271 273 272 272 270 270 270 267 266 268 270 273 278 280 282 285 287 288 288 289 290 292 294